Year,Month,Day,Hour,Minute,Value (Times are PST for temperature in C)
2016,08,26,00,00,19.00
2016,08,26,00,01,19.00
2016,08,26,00,02,18.90
2016,08,26,00,03,18.90
2016,08,26,00,04,18.90
2016,08,26,00,05,18.90
2016,08,26,00,06,18.80
2016,08,26,00,07,18.80
2016,08,26,00,08,18.80
2016,08,26,00,09,18.80
2016,08,26,00,10,18.70
2016,08,26,00,11,18.70
2016,08,26,00,12,18.70
2016,08,26,00,13,18.70
2016,08,26,00,14,18.70
2016,08,26,00,15,18.70
2016,08,26,00,16,18.70
2016,08,26,00,17,18.60
2016,08,26,00,18,18.60
2016,08,26,00,19,18.60
2016,08,26,00,20,18.60
2016,08,26,00,21,18.60
2016,08,26,00,22,18.60
2016,08,26,00,23,18.60
2016,08,26,00,24,18.50
2016,08,26,00,25,18.50
2016,08,26,00,26,18.50
2016,08,26,00,27,18.50
2016,08,26,00,28,18.50
2016,08,26,00,29,18.50
2016,08,26,00,30,18.40
2016,08,26,00,31,18.40
2016,08,26,00,32,18.40
2016,08,26,00,33,18.40
2016,08,26,00,34,18.40
2016,08,26,00,35,18.40
2016,08,26,00,36,18.40
2016,08,26,00,37,18.40
2016,08,26,00,38,18.40
2016,08,26,00,39,18.40
2016,08,26,00,40,18.30
2016,08,26,00,41,18.30
2016,08,26,00,42,18.30
2016,08,26,00,43,18.30
2016,08,26,00,44,18.30
2016,08,26,00,45,18.30
2016,08,26,00,46,18.30
2016,08,26,00,47,18.30
2016,08,26,00,48,18.30
2016,08,26,00,49,18.30
2016,08,26,00,50,18.30
2016,08,26,00,51,18.30
2016,08,26,00,52,18.30
2016,08,26,00,53,18.30
2016,08,26,00,54,18.30
2016,08,26,00,55,18.30
2016,08,26,00,56,18.30
2016,08,26,00,57,18.30
2016,08,26,00,58,18.30
2016,08,26,00,59,18.30
2016,08,26,01,00,18.30
2016,08,26,01,01,18.30
2016,08,26,01,02,18.30
2016,08,26,01,03,18.30
2016,08,26,01,04,18.30
2016,08,26,01,05,18.30
2016,08,26,01,06,18.30
2016,08,26,01,07,18.30
2016,08,26,01,08,18.20
2016,08,26,01,09,18.20
2016,08,26,01,10,18.20
2016,08,26,01,11,18.20
2016,08,26,01,12,18.20
2016,08,26,01,13,18.20
2016,08,26,01,14,18.20
2016,08,26,01,15,18.20
2016,08,26,01,16,18.10
2016,08,26,01,17,18.10
2016,08,26,01,18,18.10
2016,08,26,01,19,18.10
2016,08,26,01,20,18.10
2016,08,26,01,21,18.10
2016,08,26,01,22,18.10
2016,08,26,01,23,18.10
2016,08,26,01,24,18.00
2016,08,26,01,25,18.00
2016,08,26,01,26,18.00
2016,08,26,01,27,18.00
2016,08,26,01,28,17.90
2016,08,26,01,29,17.90
2016,08,26,01,30,17.90
2016,08,26,01,31,17.90
2016,08,26,01,32,17.90
2016,08,26,01,33,17.90
2016,08,26,01,34,17.80
2016,08,26,01,35,17.80
2016,08,26,01,36,17.80
2016,08,26,01,37,17.80
2016,08,26,01,38,17.80
2016,08,26,01,39,17.80
2016,08,26,01,40,17.80
2016,08,26,01,41,17.80
2016,08,26,01,42,17.70
2016,08,26,01,43,17.70
2016,08,26,01,44,17.70
2016,08,26,01,45,17.70
2016,08,26,01,46,17.70
2016,08,26,01,47,17.70
2016,08,26,01,48,17.70
2016,08,26,01,49,17.60
2016,08,26,01,50,17.60
2016,08,26,01,51,17.60
2016,08,26,01,52,17.60
2016,08,26,01,53,17.50
2016,08,26,01,54,17.50
2016,08,26,01,55,17.50
2016,08,26,01,56,17.50
2016,08,26,01,57,17.40
2016,08,26,01,58,17.40
2016,08,26,01,59,17.40
2016,08,26,02,00,17.40
2016,08,26,02,01,17.40
2016,08,26,02,02,17.30
2016,08,26,02,03,17.30
2016,08,26,02,04,17.30
2016,08,26,02,05,17.30
2016,08,26,02,06,17.30
2016,08,26,02,07,17.30
2016,08,26,02,08,17.20
2016,08,26,02,09,17.20
2016,08,26,02,10,17.20
2016,08,26,02,11,17.20
2016,08,26,02,12,17.20
2016,08,26,02,13,17.10
2016,08,26,02,14,17.10
2016,08,26,02,15,17.10
2016,08,26,02,16,17.10
2016,08,26,02,17,17.10
2016,08,26,02,18,17.10
2016,08,26,02,19,17.00
2016,08,26,02,20,17.00
2016,08,26,02,21,17.00
2016,08,26,02,22,17.00
2016,08,26,02,23,16.90
2016,08,26,02,24,16.90
2016,08,26,02,25,16.90
2016,08,26,02,26,16.90
2016,08,26,02,27,16.90
2016,08,26,02,28,16.90
2016,08,26,02,29,16.80
2016,08,26,02,30,16.80
2016,08,26,02,31,16.80
2016,08,26,02,32,16.80
2016,08,26,02,33,16.80
2016,08,26,02,34,16.70
2016,08,26,02,35,16.70
2016,08,26,02,36,16.70
2016,08,26,02,37,16.70
2016,08,26,02,38,16.70
2016,08,26,02,39,16.60
2016,08,26,02,40,16.60
2016,08,26,02,41,16.60
2016,08,26,02,42,16.60
2016,08,26,02,43,16.60
2016,08,26,02,44,16.50
2016,08,26,02,45,16.50
2016,08,26,02,46,16.40
2016,08,26,02,47,16.40
2016,08,26,02,48,16.40
2016,08,26,02,49,16.40
2016,08,26,02,50,16.40
2016,08,26,02,51,16.40
2016,08,26,02,52,16.30
2016,08,26,02,53,16.30
2016,08,26,02,54,16.30
2016,08,26,02,55,16.30
2016,08,26,02,56,16.30
2016,08,26,02,57,16.30
2016,08,26,02,58,16.30
2016,08,26,02,59,16.30
2016,08,26,03,00,16.30
2016,08,26,03,01,16.30
2016,08,26,03,02,16.20
2016,08,26,03,06,16.20
2016,08,26,03,07,16.20
2016,08,26,03,08,16.10
2016,08,26,03,09,16.10
2016,08,26,03,10,16.10
2016,08,26,03,11,16.10
2016,08,26,03,12,16.10
2016,08,26,03,13,16.00
2016,08,26,03,14,16.00
2016,08,26,03,15,16.00
2016,08,26,03,16,16.00
2016,08,26,03,17,16.00
2016,08,26,03,18,15.90
2016,08,26,03,19,15.90
2016,08,26,03,20,15.90
2016,08,26,03,21,15.90
2016,08,26,03,22,15.90
2016,08,26,03,23,15.90
2016,08,26,03,24,15.90
2016,08,26,03,25,15.80
2016,08,26,03,26,15.80
2016,08,26,03,27,15.80
2016,08,26,03,28,15.80
2016,08,26,03,29,15.80
2016,08,26,03,30,15.80
2016,08,26,03,31,15.80
2016,08,26,03,32,15.80
2016,08,26,03,33,15.80
2016,08,26,03,34,15.80
2016,08,26,03,35,15.70
2016,08,26,03,36,15.70
2016,08,26,03,37,15.70
2016,08,26,03,38,15.70
2016,08,26,03,39,15.70
2016,08,26,03,40,15.70
2016,08,26,03,41,15.70
2016,08,26,03,42,15.70
2016,08,26,03,43,15.70
2016,08,26,03,44,15.60
2016,08,26,03,45,15.60
2016,08,26,03,46,15.60
2016,08,26,03,47,15.60
2016,08,26,03,48,15.50
2016,08,26,03,49,15.50
2016,08,26,03,50,15.50
2016,08,26,03,51,15.40
2016,08,26,03,52,15.40
2016,08,26,03,53,15.40
2016,08,26,03,54,15.40
2016,08,26,03,55,15.40
2016,08,26,03,56,15.30
2016,08,26,03,57,15.30
2016,08,26,03,58,15.30
2016,08,26,03,59,15.30
2016,08,26,04,00,15.30
2016,08,26,04,01,15.30
2016,08,26,04,02,15.30
2016,08,26,04,03,15.30
2016,08,26,04,04,15.30
2016,08,26,04,05,15.20
2016,08,26,04,06,15.20
2016,08,26,04,07,15.20
2016,08,26,04,08,15.20
2016,08,26,04,09,15.20
2016,08,26,04,10,15.20
2016,08,26,04,11,15.20
2016,08,26,04,12,15.20
2016,08,26,04,13,15.20
2016,08,26,04,14,15.20
2016,08,26,04,15,15.20
2016,08,26,04,16,15.20
2016,08,26,04,17,15.20
2016,08,26,04,18,15.20
2016,08,26,04,19,15.20
2016,08,26,04,20,15.20
2016,08,26,04,21,15.20
2016,08,26,04,22,15.20
2016,08,26,04,23,15.20
2016,08,26,04,24,15.20
2016,08,26,04,25,15.20
2016,08,26,04,26,15.20
2016,08,26,04,27,15.20
2016,08,26,04,28,15.20
2016,08,26,04,29,15.20
2016,08,26,04,30,15.20
2016,08,26,04,31,15.20
2016,08,26,04,32,15.20
2016,08,26,04,33,15.20
2016,08,26,04,34,15.20
2016,08,26,04,35,15.20
2016,08,26,04,36,15.20
2016,08,26,04,37,15.20
2016,08,26,04,38,15.20
2016,08,26,04,39,15.20
2016,08,26,04,40,15.20
2016,08,26,04,41,15.10
2016,08,26,04,42,15.10
2016,08,26,04,43,15.10
2016,08,26,04,44,15.10
2016,08,26,04,45,15.00
2016,08,26,04,46,15.00
2016,08,26,04,47,15.00
2016,08,26,04,48,15.00
2016,08,26,04,49,15.00
2016,08,26,04,50,15.00
2016,08,26,04,51,15.00
2016,08,26,04,52,15.00
2016,08,26,04,53,15.00
2016,08,26,04,54,15.00
2016,08,26,04,55,15.00
2016,08,26,04,56,15.00
2016,08,26,04,57,15.00
2016,08,26,04,58,15.00
2016,08,26,04,59,15.00
2016,08,26,05,00,15.00
2016,08,26,05,01,15.00
2016,08,26,05,02,15.00
2016,08,26,05,03,15.00
2016,08,26,05,04,15.00
2016,08,26,05,05,15.00
2016,08,26,05,06,15.00
2016,08,26,05,07,15.00
2016,08,26,05,08,15.00
2016,08,26,05,09,15.00
2016,08,26,05,10,15.00
2016,08,26,05,11,15.00
2016,08,26,05,12,15.00
2016,08,26,05,13,15.00
2016,08,26,05,14,15.00
2016,08,26,05,15,15.00
2016,08,26,05,16,15.00
2016,08,26,05,17,15.00
2016,08,26,05,18,15.00
2016,08,26,05,19,15.00
2016,08,26,05,20,15.00
2016,08,26,05,21,15.00
2016,08,26,05,22,15.00
2016,08,26,05,23,15.00
2016,08,26,05,24,15.00
2016,08,26,05,25,15.00
2016,08,26,05,26,15.00
2016,08,26,05,27,15.00
2016,08,26,05,28,15.00
2016,08,26,05,29,15.00
2016,08,26,05,30,15.00
2016,08,26,05,31,15.00
2016,08,26,05,32,15.00
2016,08,26,05,33,15.00
2016,08,26,05,34,15.00
2016,08,26,05,35,15.00
2016,08,26,05,36,15.00
2016,08,26,05,37,15.00
2016,08,26,05,38,15.00
2016,08,26,05,39,15.00
2016,08,26,05,40,15.00
2016,08,26,05,41,15.00
2016,08,26,05,42,15.00
2016,08,26,05,43,15.00
2016,08,26,05,44,15.00
2016,08,26,05,45,15.00
2016,08,26,05,46,15.00
2016,08,26,05,47,15.00
2016,08,26,05,48,15.00
2016,08,26,05,49,15.00
2016,08,26,05,50,15.00
2016,08,26,05,51,15.00
2016,08,26,05,52,15.00
2016,08,26,05,53,15.00
2016,08,26,05,54,15.00
2016,08,26,05,55,15.00
2016,08,26,05,56,15.00
2016,08,26,05,57,15.00
2016,08,26,05,58,15.00
2016,08,26,05,59,15.00
2016,08,26,06,00,15.00
2016,08,26,06,01,15.00
2016,08,26,06,02,15.00
2016,08,26,06,03,15.00
2016,08,26,06,04,15.00
2016,08,26,06,05,15.00
2016,08,26,06,06,15.00
2016,08,26,06,07,15.00
2016,08,26,06,08,15.00
2016,08,26,06,09,15.00
2016,08,26,06,10,15.00
2016,08,26,06,11,15.00
2016,08,26,06,12,15.00
2016,08,26,06,13,15.00
2016,08,26,06,14,15.00
2016,08,26,06,15,15.00
2016,08,26,06,16,15.00
2016,08,26,06,17,15.00
2016,08,26,06,18,15.00
2016,08,26,06,19,15.00
2016,08,26,06,20,15.00
2016,08,26,06,21,15.00
2016,08,26,06,22,15.00
2016,08,26,06,23,15.00
2016,08,26,06,24,15.00
2016,08,26,06,25,15.00
2016,08,26,06,26,15.00
2016,08,26,06,27,15.00
2016,08,26,06,28,15.00
2016,08,26,06,29,15.00
2016,08,26,06,30,15.00
2016,08,26,06,31,15.00
2016,08,26,06,32,15.00
2016,08,26,06,33,15.00
2016,08,26,06,34,15.00
2016,08,26,06,35,15.00
2016,08,26,06,36,15.00
2016,08,26,06,37,15.00
2016,08,26,06,38,15.00
2016,08,26,06,39,15.00
2016,08,26,06,40,15.00
2016,08,26,06,41,15.00
2016,08,26,06,42,15.00
2016,08,26,06,43,15.00
2016,08,26,06,44,15.00
2016,08,26,06,45,15.00
2016,08,26,06,46,15.00
2016,08,26,06,47,15.00
2016,08,26,06,48,15.00
2016,08,26,06,49,15.00
2016,08,26,06,50,15.00
2016,08,26,06,51,15.00
2016,08,26,06,52,15.00
2016,08,26,06,53,15.00
2016,08,26,06,54,15.00
2016,08,26,06,55,15.00
2016,08,26,06,56,15.00
2016,08,26,06,57,15.00
2016,08,26,06,58,15.00
2016,08,26,06,59,15.10
2016,08,26,07,00,15.10
2016,08,26,07,01,15.20
2016,08,26,07,02,15.20
2016,08,26,07,03,15.30
2016,08,26,07,04,15.30
2016,08,26,07,05,15.30
2016,08,26,07,06,15.30
2016,08,26,07,07,15.30
2016,08,26,07,08,15.40
2016,08,26,07,09,15.40
2016,08,26,07,10,15.40
2016,08,26,07,11,15.40
2016,08,26,07,12,15.40
2016,08,26,07,13,15.40
2016,08,26,07,14,15.40
2016,08,26,07,15,15.40
2016,08,26,07,16,15.40
2016,08,26,07,17,15.40
2016,08,26,07,18,15.40
2016,08,26,07,19,15.40
2016,08,26,07,20,15.40
2016,08,26,07,21,15.40
2016,08,26,07,22,15.50
2016,08,26,07,23,15.50
2016,08,26,07,24,15.50
2016,08,26,07,25,15.50
2016,08,26,07,26,15.50
2016,08,26,07,27,15.50
2016,08,26,07,28,15.50
2016,08,26,07,29,15.50
2016,08,26,07,30,15.50
2016,08,26,07,31,15.50
2016,08,26,07,32,15.50
2016,08,26,07,33,15.50
2016,08,26,07,34,15.60
2016,08,26,07,35,15.60
2016,08,26,07,36,15.60
2016,08,26,07,37,15.60
2016,08,26,07,38,15.60
2016,08,26,07,39,15.60
2016,08,26,07,40,15.60
2016,08,26,07,41,15.60
2016,08,26,07,42,15.60
2016,08,26,07,43,15.70
2016,08,26,07,44,15.70
2016,08,26,07,45,15.70
2016,08,26,07,46,15.70
2016,08,26,07,47,15.70
2016,08,26,07,48,15.80
2016,08,26,07,49,15.80
2016,08,26,07,50,15.80
2016,08,26,07,51,15.80
2016,08,26,07,52,15.80
2016,08,26,07,53,15.80
2016,08,26,07,54,15.90
2016,08,26,07,55,15.90
2016,08,26,07,56,15.90
2016,08,26,07,57,15.90
2016,08,26,07,58,15.90
2016,08,26,07,59,16.00
2016,08,26,08,00,16.00
2016,08,26,08,01,16.00
2016,08,26,08,02,16.00
2016,08,26,08,03,16.10
2016,08,26,08,04,16.10
2016,08,26,08,05,16.10
2016,08,26,08,06,16.10
2016,08,26,08,07,16.20
2016,08,26,08,08,16.20
2016,08,26,08,09,16.30
2016,08,26,08,10,16.30
2016,08,26,08,11,16.30
2016,08,26,08,12,16.30
2016,08,26,08,13,16.40
2016,08,26,08,14,16.40
2016,08,26,08,15,16.50
2016,08,26,08,16,16.50
2016,08,26,08,17,16.60
2016,08,26,08,18,16.60
2016,08,26,08,19,16.70
2016,08,26,08,20,16.70
2016,08,26,08,21,16.80
2016,08,26,08,22,16.80
2016,08,26,08,23,16.90
2016,08,26,08,24,16.90
2016,08,26,08,25,17.00
2016,08,26,08,26,17.10
2016,08,26,08,27,17.10
2016,08,26,08,28,17.20
2016,08,26,08,29,17.30
2016,08,26,08,30,17.40
2016,08,26,08,31,17.40
2016,08,26,08,32,17.40
2016,08,26,08,33,17.50
2016,08,26,08,34,17.50
2016,08,26,08,35,17.50
2016,08,26,08,36,17.60
2016,08,26,08,37,17.60
2016,08,26,08,38,17.70
2016,08,26,08,39,17.70
2016,08,26,08,40,17.80
2016,08,26,08,41,17.80
2016,08,26,08,42,17.90
2016,08,26,08,43,17.90
2016,08,26,08,44,17.90
2016,08,26,08,45,18.00
2016,08,26,08,46,18.00
2016,08,26,08,47,18.10
2016,08,26,08,48,18.10
2016,08,26,08,49,18.20
2016,08,26,08,50,18.20
2016,08,26,08,51,18.20
2016,08,26,08,52,18.30
2016,08,26,08,53,18.30
2016,08,26,08,54,18.30
2016,08,26,08,55,18.40
2016,08,26,08,56,18.40
2016,08,26,08,57,18.50
2016,08,26,08,58,18.50
2016,08,26,08,59,18.60
2016,08,26,09,00,18.60
2016,08,26,09,01,18.60
2016,08,26,09,02,18.60
2016,08,26,09,03,18.70
2016,08,26,09,04,18.70
2016,08,26,09,05,18.70
2016,08,26,09,06,18.70
2016,08,26,09,07,18.80
2016,08,26,09,08,18.80
2016,08,26,09,09,18.80
2016,08,26,09,10,18.80
2016,08,26,09,11,18.90
2016,08,26,09,12,18.90
2016,08,26,09,13,19.00
2016,08,26,09,14,19.00
2016,08,26,09,15,19.10
2016,08,26,09,16,19.10
2016,08,26,09,17,19.20
2016,08,26,09,18,19.30
2016,08,26,09,19,19.30
2016,08,26,09,20,19.40
2016,08,26,09,21,19.50
2016,08,26,09,22,19.60
2016,08,26,09,23,19.60
2016,08,26,09,24,19.80
2016,08,26,09,25,19.90
2016,08,26,09,26,20.00
2016,08,26,09,27,20.10
2016,08,26,09,28,20.10
2016,08,26,09,29,20.20
2016,08,26,09,30,20.30
2016,08,26,09,31,20.40
2016,08,26,09,32,20.50
2016,08,26,09,33,20.50
2016,08,26,09,34,20.60
2016,08,26,09,35,20.70
2016,08,26,09,36,20.80
2016,08,26,09,37,20.80
2016,08,26,09,38,20.90
2016,08,26,09,39,21.00
2016,08,26,09,40,21.00
2016,08,26,09,41,21.10
2016,08,26,09,42,21.10
2016,08,26,09,43,21.20
2016,08,26,09,44,21.20
2016,08,26,09,45,21.30
2016,08,26,09,46,21.30
2016,08,26,09,47,21.40
2016,08,26,09,48,21.50
2016,08,26,09,49,21.60
2016,08,26,09,50,21.70
2016,08,26,09,51,21.80
2016,08,26,09,52,21.90
2016,08,26,09,53,22.00
2016,08,26,09,54,22.10
2016,08,26,09,55,22.20
2016,08,26,09,56,22.30
2016,08,26,09,57,22.40
2016,08,26,09,58,22.50
2016,08,26,09,59,22.70
2016,08,26,10,00,22.80
2016,08,26,10,01,22.90
2016,08,26,10,02,23.00
2016,08,26,10,03,23.10
2016,08,26,10,04,23.20
2016,08,26,10,05,23.30
2016,08,26,10,06,23.40
2016,08,26,10,07,23.50
2016,08,26,10,08,23.60
2016,08,26,10,09,23.80
2016,08,26,10,10,23.90
2016,08,26,10,11,24.00
2016,08,26,10,12,24.10
2016,08,26,10,13,24.30
2016,08,26,10,14,24.40
2016,08,26,10,15,24.50
2016,08,26,10,16,24.60
2016,08,26,10,17,24.70
2016,08,26,10,18,24.80
2016,08,26,10,19,24.90
2016,08,26,10,20,24.90
2016,08,26,10,21,25.10
2016,08,26,10,22,25.20
2016,08,26,10,23,25.30
2016,08,26,10,24,25.40
2016,08,26,10,25,25.60
2016,08,26,10,26,25.70
2016,08,26,10,27,25.80
2016,08,26,10,28,25.90
2016,08,26,10,29,25.90
2016,08,26,10,30,25.90
2016,08,26,10,31,26.00
2016,08,26,10,32,26.10
2016,08,26,10,33,26.20
2016,08,26,10,34,26.20
2016,08,26,10,35,26.30
2016,08,26,10,36,26.30
2016,08,26,10,37,26.40
2016,08,26,10,38,26.40
2016,08,26,10,39,26.40
2016,08,26,10,40,26.40
2016,08,26,10,41,26.50
2016,08,26,10,42,26.60
2016,08,26,10,43,26.60
2016,08,26,10,44,26.70
2016,08,26,10,45,26.80
2016,08,26,10,46,26.80
2016,08,26,10,47,26.90
2016,08,26,10,48,26.90
2016,08,26,10,49,27.00
2016,08,26,10,50,27.10
2016,08,26,10,51,27.10
2016,08,26,10,52,27.20
2016,08,26,10,53,27.20
2016,08,26,10,54,27.30
2016,08,26,10,55,27.30
2016,08,26,10,56,27.30
2016,08,26,10,57,27.30
2016,08,26,10,58,27.30
2016,08,26,10,59,27.40
2016,08,26,11,00,27.40
2016,08,26,11,01,27.40
2016,08,26,11,02,27.50
2016,08,26,11,03,27.60
2016,08,26,11,04,27.60
2016,08,26,11,05,27.70
2016,08,26,11,06,27.70
2016,08,26,11,07,27.80
2016,08,26,11,08,27.80
2016,08,26,11,09,27.80
2016,08,26,11,10,27.90
2016,08,26,11,11,27.90
2016,08,26,11,12,27.90
2016,08,26,11,13,27.90
2016,08,26,11,14,27.80
2016,08,26,11,15,27.80
2016,08,26,11,16,27.90
2016,08,26,11,17,27.90
2016,08,26,11,18,28.00
2016,08,26,11,19,28.00
2016,08,26,11,20,28.10
2016,08,26,11,21,28.10
2016,08,26,11,22,28.10
2016,08,26,11,23,28.10
2016,08,26,11,24,28.10
2016,08,26,11,25,28.10
2016,08,26,11,26,28.10
2016,08,26,11,27,28.10
2016,08,26,11,28,28.20
2016,08,26,11,29,28.20
2016,08,26,11,30,28.20
2016,08,26,11,31,28.20
2016,08,26,11,32,28.30
2016,08,26,11,33,28.30
2016,08,26,11,34,28.30
2016,08,26,11,35,28.30
2016,08,26,11,36,28.30
2016,08,26,11,37,28.30
2016,08,26,11,38,28.20
2016,08,26,11,39,28.20
2016,08,26,11,40,28.20
2016,08,26,11,41,28.20
2016,08,26,11,42,28.20
2016,08,26,11,43,28.20
2016,08,26,11,44,28.20
2016,08,26,11,45,28.20
2016,08,26,11,46,28.20
2016,08,26,11,47,28.20
2016,08,26,11,48,28.20
2016,08,26,11,49,28.10
2016,08,26,11,50,28.10
2016,08,26,11,51,28.10
2016,08,26,11,52,28.10
2016,08,26,11,53,28.10
2016,08,26,11,54,28.10
2016,08,26,11,55,28.10
2016,08,26,11,56,28.10
2016,08,26,11,57,28.00
2016,08,26,11,58,28.00
2016,08,26,11,59,28.00
2016,08,26,12,00,28.00
2016,08,26,12,01,27.90
2016,08,26,12,02,27.90
2016,08,26,12,03,27.90
2016,08,26,12,04,27.90
2016,08,26,12,05,27.90
2016,08,26,12,06,27.90
2016,08,26,12,07,27.90
2016,08,26,12,08,27.90
2016,08,26,12,09,28.00
2016,08,26,12,10,28.00
2016,08,26,12,11,28.10
2016,08,26,12,12,28.20
2016,08,26,12,13,28.20
2016,08,26,12,14,28.30
2016,08,26,12,15,28.30
2016,08,26,12,16,28.30
2016,08,26,12,17,28.40
2016,08,26,12,18,28.30
2016,08,26,12,19,28.40
2016,08,26,12,20,28.40
2016,08,26,12,21,28.30
2016,08,26,12,22,28.30
2016,08,26,12,23,28.30
2016,08,26,12,24,28.30
2016,08,26,12,25,28.20
2016,08,26,12,26,28.20
2016,08,26,12,27,28.20
2016,08,26,12,28,28.20
2016,08,26,12,29,28.20
2016,08,26,12,30,28.10
2016,08,26,12,31,28.10
2016,08,26,12,32,28.10
2016,08,26,12,33,28.10
2016,08,26,12,34,28.10
2016,08,26,12,35,28.10
2016,08,26,12,36,28.10
2016,08,26,12,37,28.10
2016,08,26,12,38,28.20
2016,08,26,12,39,28.20
2016,08,26,12,40,28.20
2016,08,26,12,41,28.30
2016,08,26,12,42,28.30
2016,08,26,12,43,28.30
2016,08,26,12,44,28.30
2016,08,26,12,45,28.30
2016,08,26,12,46,28.30
2016,08,26,12,47,28.30
2016,08,26,12,48,28.30
2016,08,26,12,49,28.30
2016,08,26,12,50,28.20
2016,08,26,12,51,28.20
2016,08,26,12,52,28.20
2016,08,26,12,53,28.20
2016,08,26,12,54,28.20
2016,08,26,12,55,28.20
2016,08,26,12,56,28.30
2016,08,26,12,57,28.30
2016,08,26,12,58,28.30
2016,08,26,12,59,28.30
2016,08,26,13,00,28.30
2016,08,26,13,01,28.30
2016,08,26,13,02,28.30
2016,08,26,13,03,28.30
2016,08,26,13,04,28.30
2016,08,26,13,05,28.30
2016,08,26,13,06,28.40
2016,08,26,13,07,28.40
2016,08,26,13,08,28.40
2016,08,26,13,09,28.40
2016,08,26,13,10,28.40
2016,08,26,13,11,28.40
2016,08,26,13,12,28.40
2016,08,26,13,13,28.40
2016,08,26,13,14,28.40
2016,08,26,13,15,28.40
2016,08,26,13,16,28.40
2016,08,26,13,17,28.30
2016,08,26,13,18,28.30
2016,08,26,13,19,28.40
2016,08,26,13,20,28.40
2016,08,26,13,21,28.40
2016,08,26,13,22,28.50
2016,08,26,13,23,28.50
2016,08,26,13,24,28.50
2016,08,26,13,25,28.60
2016,08,26,13,26,28.60
2016,08,26,13,27,28.60
2016,08,26,13,28,28.60
2016,08,26,13,29,28.70
2016,08,26,13,30,28.60
2016,08,26,13,31,28.60
2016,08,26,13,32,28.70
2016,08,26,13,33,28.70
2016,08,26,13,34,28.70
2016,08,26,13,35,28.70
2016,08,26,13,36,28.70
2016,08,26,13,37,28.70
2016,08,26,13,38,28.70
2016,08,26,13,39,28.70
2016,08,26,13,40,28.70
2016,08,26,13,41,28.70
2016,08,26,13,42,28.70
2016,08,26,13,43,28.70
2016,08,26,13,44,28.70
2016,08,26,13,45,28.70
2016,08,26,13,46,28.80
2016,08,26,13,47,28.80
2016,08,26,13,48,28.70
2016,08,26,13,49,28.70
2016,08,26,13,50,28.80
2016,08,26,13,51,28.80
2016,08,26,13,52,28.80
2016,08,26,13,53,28.80
2016,08,26,13,54,28.80
2016,08,26,13,55,28.80
2016,08,26,13,56,28.90
2016,08,26,13,57,28.90
2016,08,26,13,58,28.90
2016,08,26,13,59,29.00
2016,08,26,14,00,29.00
2016,08,26,14,01,29.10
2016,08,26,14,02,29.10
2016,08,26,14,03,29.10
2016,08,26,14,04,29.20
2016,08,26,14,05,29.20
2016,08,26,14,06,29.20
2016,08,26,14,07,29.20
2016,08,26,14,08,29.20
2016,08,26,14,09,29.30
2016,08,26,14,10,29.30
2016,08,26,14,11,29.30
2016,08,26,14,12,29.30
2016,08,26,14,13,29.20
2016,08,26,14,14,29.20
2016,08,26,14,15,29.20
2016,08,26,14,16,29.20
2016,08,26,14,17,29.20
2016,08,26,14,18,29.20
2016,08,26,14,19,29.20
2016,08,26,14,20,29.10
2016,08,26,14,21,29.10
2016,08,26,14,22,29.10
2016,08,26,14,23,29.10
2016,08,26,14,24,29.20
2016,08,26,14,25,29.20
2016,08,26,14,26,29.20
2016,08,26,14,27,29.20
2016,08,26,14,28,29.30
2016,08,26,14,29,29.30
2016,08,26,14,30,29.30
2016,08,26,14,31,29.20
2016,08,26,14,32,29.20
2016,08,26,14,33,29.20
2016,08,26,14,34,29.20
2016,08,26,14,35,29.30
2016,08,26,14,36,29.40
2016,08,26,14,37,29.50
2016,08,26,14,38,29.60
2016,08,26,14,39,29.60
2016,08,26,14,40,29.70
2016,08,26,14,41,29.70
2016,08,26,14,42,29.70
2016,08,26,14,43,29.70
2016,08,26,14,44,29.80
2016,08,26,14,45,29.90
2016,08,26,14,46,29.90
2016,08,26,14,47,30.00
2016,08,26,14,48,30.00
2016,08,26,14,49,30.00
2016,08,26,14,50,30.00
2016,08,26,14,51,29.90
2016,08,26,14,52,29.90
2016,08,26,14,53,29.90
2016,08,26,14,54,29.90
2016,08,26,14,55,29.90
2016,08,26,14,56,29.90
2016,08,26,14,57,29.90
2016,08,26,14,58,29.90
2016,08,26,14,59,29.90
2016,08,26,15,00,29.90
2016,08,26,15,01,29.90
2016,08,26,15,02,30.00
2016,08,26,15,03,30.00
2016,08,26,15,04,30.00
2016,08,26,15,05,30.10
2016,08,26,15,06,30.10
2016,08,26,15,07,30.10
2016,08,26,15,08,30.10
2016,08,26,15,09,30.10
2016,08,26,15,10,30.20
2016,08,26,15,11,30.20
2016,08,26,15,12,30.30
2016,08,26,15,13,30.30
2016,08,26,15,14,30.30
2016,08,26,15,15,30.20
2016,08,26,15,16,30.10
2016,08,26,15,17,30.10
2016,08,26,15,18,30.10
2016,08,26,15,19,30.20
2016,08,26,15,20,30.20
2016,08,26,15,21,30.10
2016,08,26,15,22,30.10
2016,08,26,15,23,30.10
2016,08,26,15,24,30.10
2016,08,26,15,25,30.20
2016,08,26,15,26,30.30
2016,08,26,15,27,30.30
2016,08,26,15,28,30.30
2016,08,26,15,29,30.20
2016,08,26,15,30,30.20
2016,08,26,15,31,30.20
2016,08,26,15,32,30.20
2016,08,26,15,33,30.10
2016,08,26,15,34,30.10
2016,08,26,15,35,30.10
2016,08,26,15,36,30.10
2016,08,26,15,37,30.10
2016,08,26,15,38,30.10
2016,08,26,15,39,30.20
2016,08,26,15,40,30.20
2016,08,26,15,41,30.20
2016,08,26,15,42,30.30
2016,08,26,15,43,30.40
2016,08,26,15,44,30.40
2016,08,26,15,45,30.40
2016,08,26,15,46,30.50
2016,08,26,15,47,30.50
2016,08,26,15,48,30.50
2016,08,26,15,49,30.50
2016,08,26,15,50,30.60
2016,08,26,15,51,30.60
2016,08,26,15,52,30.60
2016,08,26,15,53,30.60
2016,08,26,15,54,30.60
2016,08,26,15,55,30.60
2016,08,26,15,56,30.60
2016,08,26,15,57,30.60
2016,08,26,15,58,30.60
2016,08,26,15,59,30.50
2016,08,26,16,00,30.50
2016,08,26,16,01,30.50
2016,08,26,16,02,30.40
2016,08,26,16,03,30.40
2016,08,26,16,04,30.30
2016,08,26,16,05,30.30
2016,08,26,16,06,30.30
2016,08,26,16,07,30.30
2016,08,26,16,08,30.30
2016,08,26,16,09,30.20
2016,08,26,16,10,30.20
2016,08,26,16,11,30.20
2016,08,26,16,12,30.20
2016,08,26,16,13,30.10
2016,08,26,16,14,30.10
2016,08,26,16,15,30.00
2016,08,26,16,16,30.00
2016,08,26,16,17,30.00
2016,08,26,16,18,30.10
2016,08,26,16,19,30.10
2016,08,26,16,20,30.10
2016,08,26,16,21,30.10
2016,08,26,16,22,30.10
2016,08,26,16,23,30.10
2016,08,26,16,24,30.10
2016,08,26,16,25,30.10
2016,08,26,16,26,30.10
2016,08,26,16,27,30.10
2016,08,26,16,28,30.10
2016,08,26,16,29,30.10
2016,08,26,16,30,30.10
2016,08,26,16,31,30.10
2016,08,26,16,32,30.10
2016,08,26,16,33,30.10
2016,08,26,16,34,30.10
2016,08,26,16,35,30.10
2016,08,26,16,36,30.20
2016,08,26,16,37,30.20
2016,08,26,16,38,30.20
2016,08,26,16,39,30.20
2016,08,26,16,40,30.20
2016,08,26,16,41,30.20
2016,08,26,16,42,30.10
2016,08,26,16,43,30.10
2016,08,26,16,44,30.00
2016,08,26,16,45,30.00
2016,08,26,16,46,29.90
2016,08,26,16,47,30.00
2016,08,26,16,48,30.00
2016,08,26,16,49,30.00
2016,08,26,16,50,30.00
2016,08,26,16,51,30.10
2016,08,26,16,52,30.00
2016,08,26,16,53,30.00
2016,08,26,16,54,30.00
2016,08,26,16,55,30.00
2016,08,26,16,56,29.90
2016,08,26,16,57,29.80
2016,08,26,16,58,29.80
2016,08,26,16,59,29.80
2016,08,26,17,00,29.70
2016,08,26,17,01,29.80
2016,08,26,17,02,29.80
2016,08,26,17,03,29.80
2016,08,26,17,04,29.80
2016,08,26,17,05,29.80
2016,08,26,17,06,29.80
2016,08,26,17,07,29.80
2016,08,26,17,08,29.90
2016,08,26,17,09,29.90
2016,08,26,17,10,30.00
2016,08,26,17,11,30.00
2016,08,26,17,12,30.00
2016,08,26,17,13,29.90
2016,08,26,17,14,29.90
2016,08,26,17,15,29.90
2016,08,26,17,16,29.90
2016,08,26,17,17,29.90
2016,08,26,17,18,29.90
2016,08,26,17,19,29.90
2016,08,26,17,20,29.90
2016,08,26,17,21,29.80
2016,08,26,17,22,29.80